Погода в Кирилловском

Россия / Санкт-Петербург и Ленинградская область     60°28′14″N   29°17′13″E
темп.,
°C
ветер,
м/с
пор.,
м/с
влажн.,
%
обл.,
%
осадки,
мм/ч
давл.,
гПа
погр.,
м
16 мая, вс
вс1600:00+12св227649 0.0 100415
03:00+11ссз228380 0.0 100418
06:00+12ссз128155 0.1 100473
09:00+17з2363100 0.1 1005554
12:00+19зсз2351100 0.0 10071020
15:00+18з456182 0.6 1008868
18:00+17зюз44575 0.1 1009692
21:00+13юз24714 0.1 1010100
17 мая, пн
пн1700:00+9юз22735 0.0 101128
03:00+10ююв1169100 0.0 101210
06:00+11юв267018 0.0 1012133
09:00+18юв466397 0.0 1012596
12:00+22юв5746100 0.0 10111679
15:00+23юв6844100 0.0 10102233
18:00+19ююв51065100 0.9 1009928
21:00+15ююз51283100 2.8 1010536
18 мая, вт
вт1800:00+14вюв2394100 0.1 100990
03:00+14вюв2494100 0.1 1009118
06:00+14всв2496100 0.0 1008171
09:00+17всв3585100 0.1 1006461
12:00+21в5766100 0.0 1004846
15:00+23юв596798 1.6 10021200
18:00+23юв51267100 0.9 10001270
21:00+20ююв614766 2.9 999942
19 мая, ср
ср1900:00+17ююв5138359 0.0 1000763
03:00+15ююв5128864 0.0 1001805
06:00+16ююв41083100 0.0 10011033
09:00+16ююз5107699 0.2 10021106
12:00+14ююз5879100 0.0 1004857
15:00+15ююз3570100 0.1 1005696
18:00+13зюз2488100 1.3 1004264
21:00+12сз119496 1.4 100410
20 мая, чт
чт2000:00+11св2398100 0.0 100388
03:00+12с2399100 2.1 1001119
06:00+12ссз249983 1.1 1000188
09:00+14ююз2392100 1.1 1000422
12:00+17юв238299 0.1 1000685
15:00+17юв358999 2.4 999475
18:00+14юз3598100 2.2 997293
21:00+10ююз3798100 2.6 997285